Regional Weather Roundup
Issued by NWS Columbia, SC

Home | Current Version | Previous Version | Text Only | Print | Product List | Glossary On
Versions: 1 2 3 4 5 6 7 8 9 10 11 12 13 14 15 16 17 18 19 20 21 22 23 24 25 26 27 28 29 30 31 32 33 34 35 36 37 38 39 40 41 42 43 44 45 46 47 48 49 50
000
ASUS42 KCAE 272010
RWRCAE
REGIONAL WEATHER ROUNDUP
NATIONAL WEATHER SERVICE COLUMBIA SC
400 PM EDT SUN MAY 27 2018

NOTE: "FAIR" INDICATES FEW OR NO CLOUDS BELOW 12,000 FEET WITH NO
SIGNIFICANT WEATHER AND/OR OBSTRUCTIONS TO VISIBILITY.

NOT ALL STATIONS ARE QUALITY CONTROLLED BY THE NATIONAL
WEATHER SERVICE. USE DATA WITH CAUTION...ESPECIALLY
DEWPOINT OBSERVATIONS.

SCZ001>056-GAZ040-063>065-077-272100-
...UPSTATE SOUTH CAROLINA...

CITY           SKY/WX    TMP DP  RH WIND       PRES   REMARKS
ANDERSON       FAIR      80  70  71 SE10      29.95F
LIBERTY        MOCLDY    79  71  76 SE8       29.96S
SPARTANBURG    PTSUNNY   79  68  69 SE6       29.97S
CLEMSON        FAIR      79  70  74 VRB5      29.96F
GREENVILLE     FAIR      82  70  66 SE12      29.98F
GREENWOOD      FAIR      82  68  62 E6        29.97F
GREER          PTSUNNY   79  71  76 SE8       29.97F
ROCK HILL      FAIR      83  66  56 SW8       29.98F
CHESTER        FAIR      81  63  54 SE8       29.98F
LAURENS        FAIR      79  64  61 SE3       29.97S


...CENTRAL SOUTH CAROLINA...

CITY           SKY/WX    TMP DP  RH WIND       PRES   REMARKS
COLUMBIA APT   PTSUNNY   86  65  49 E14       29.94F
COLUMBIA OWENS FAIR      84  65  52 SE8       29.95F
MCENTIRE ANGB  FAIR      84  67  57 SE9       29.95F
ORANGEBURG     CLOUDY    79  68  69 SE6       29.96S
SUMTER SHAW    PTSUNNY   84  64  49 SE9       29.94F
NEWBERRY       FAIR      82  66  57 SE6       29.98F
AIKEN          FAIR      81  66  61 E9        29.98F
BARNWELL       MOCLDY    77  72  83 SE8       29.96R
MANNING        DRIZZLE   75  68  78 SE5       29.97F
CAMDEN         FAIR      84  68  58 MISG      29.97F
LANCASTER      FAIR      82  66  57 SE5       29.97F
WINNSBORO      FAIR      82  64  54 E8        29.96F


...EASTERN AND COASTAL SOUTH CAROLINA...

CITY           SKY/WX    TMP DP  RH WIND       PRES   REMARKS
MYRTLE BEACH   FAIR      79  73  82 SE10      30.01F
N MYRTLE BCH   FAIR      80  72  76 SE7       30.00F
CONWAY         FAIR      79  72  78 SE7       29.99F HAZE
MARION         FAIR      81  66  61 SE8       29.98F
HARTSVILLE     FAIR      81  66  61 SE9       29.96F
FLORENCE       FAIR      83  65  54 SE10      29.98F
DARLINGTON       N/A     83  67  58 S15       29.97F
CHARLESTON APT LGT RAIN  76  71  85 SE16      29.97F
MOUNT PLEASANT LGT RAIN  73  72  94 SE8       29.98F
WALTERBORO     DRIZZLE   73  72  94 SE7       29.96F
BEAUFORT       LGT RAIN  75  74  96 E10G21    29.94


...EASTERN GEORGIA...

CITY           SKY/WX    TMP DP  RH WIND       PRES   REMARKS
AUGUSTA BUSH F PTSUNNY   83  69  62 E6        29.92F
AUGUSTA DANIEL FAIR      84  68  58 E10       29.94F
THOMSON        FAIR      80  69  68 SE7       29.99F
WASHINGTON     FAIR      79  68  69 E5        29.95F
CLAXTON        LGT RAIN  78  73  84 E7        29.91F
SYLVANIA       RAIN      73  72  95 SE9       29.95S
STATESBORO     DRIZZLE   75  73  91 E8        29.92F
SAVANNAH       LGT RAIN  76  73  91 E10       29.92F


...SOUTHERN NORTH CAROLINA...

CITY           SKY/WX    TMP DP  RH WIND       PRES   REMARKS
CHARLOTTE      PTSUNNY   83  70  64 S12       29.97F
MONROE         FAIR      82  66  58 VRB6      29.97F
WADESBORO      FAIR      84  67  56 SE7       29.96F
ROCKINGHAM     FAIR      84  68  58 S7        29.97F
ASHEVILLE      CLOUDY    79  67  66 S8        30.01F

$$



USA.gov is the U.S. government's official web portal to all federal, state and local government web resources and services.